Location: Lecco
(45.8566°N, 9.3977°E)
Time: 04:55:39
(UTC+02:00)

Transit 4A - Pass Details

Date: 18 August 2020
Orbit: 863 x 982 km, 66.8° (Epoch: 23 September)

Event Time Altitude Azimuth Distance (km) Brightness Sun altitude
Rises 10:26:32 0° 249° (WSW) 3,517 10.6 39.9°
Reaches altitude 10° 10:29:21 10° 261° (W) 2,599 10.0 40.3°
Maximum altitude 10:34:32 29° 320° (NW) 1,650 9.1 41.1°
Drops below altitude 10° 10:39:53 10° 19° (NNE) 2,681 10.3 41.9°
Sets 10:42:51 0° 31° (NNE) 3,648 11.0 42.4°
